Location: Newark
(49.2191°N, 12.6671°E)
Time: 22:52:10
(UTC+00:00)

Transit 2A - Pass Details

Date: 25 January 2020
Orbit: 600 x 959 km, 66.7° (Epoch: 19 February)

Event Time Altitude Azimuth Distance (km) Brightness Sun altitude
Exits shadow 03:16:14 22° 124° (SE) 1,555 7.9 -34.7°
Drops below altitude 10° 03:18:08 10° 131° (SE) 2,261 8.8 -34.3°
Sets 03:20:40 0° 135° (SE) 3,244 9.7 -33.9°
